Flag for Greece Weather past 2 weeks in Kalamata, Greece

Now
73 °F

Scattered clouds.


Feels Like: 77 °F
Forecast: 56 / 74 °F
Wind: 5 mph from North

Location: Kalamata Airport

Current Time: May 29, 2015 at 8:27:16 PM

Latest Report: May 29, 2015 at 7:50 PM


Visibility: N/A

Pressure: 29.89 "Hg

Humidity: 44%

Dew point: 50 °F

Location of KalamataLocation

Historic Weather in Kalamata — Graph

°F

Kalamata temperature yesterday

Maximum temperature yesterday: 79 °F (at 2:50 PM)
Minimum temperature yesterday: 52 °F (at 6:20 AM)
Average temperature yesterday: 68 °F

Past Weeks' High & Low Weather Summary

 TemperatureHumidityPressure
High88 °F (May 22, 12:50 PM)100% (May 16, 2:50 AM)30.15 "Hg (May 16, 2:50 AM)
Low50 °F (May 15, 6:50 AM)28% (May 14, 6:50 PM)29.68 "Hg (May 27, 2:50 AM)
Average68 °F65%29.89 "Hg
* Reported May 14 6:20 PM — May 29 6:50 PM, Kalamata, Weather by CustomWeather, © 2015

Note: Actual official high and low records may vary slightly from our data, if they occured in-between our weather recording intervals... More about our weather records

Advertising

Kalamata weather history for previous 24 hours

 ConditionsComfort  
Time TempWeatherWind HumidityBarometerVisibility
6:50 PM
Fri, May 29
73 °FPartly sunny.6 mph50%29.89 "HgN/A
6:20 PM75 °FPartly sunny.9 mph50%29.86 "HgN/A
5:50 PM75 °FPartly sunny.9 mph47%29.86 "HgN/A
5:20 PM75 °FScattered clouds.9 mph47%29.86 "HgN/A
4:50 PM75 °FScattered clouds.9 mph47%29.86 "HgN/A
4:20 PM75 °FScattered clouds.9 mph47%29.86 "HgN/A
3:50 PM75 °FScattered clouds.9 mph44%29.86 "HgN/A
3:20 PM73 °FScattered clouds.9 mph50%29.86 "HgN/A
2:50 PM73 °FScattered clouds.7 mph53%29.86 "HgN/A
2:20 PM70 °FScattered clouds.7 mph64%29.86 "HgN/A
1:50 PM75 °FScattered clouds.5 mph41%29.86 "HgN/A
1:20 PM77 °FScattered clouds.5 mph42%29.86 "HgN/A
12:50 PM73 °FScattered clouds.No wind47%29.86 "HgN/A
12:20 PM73 °FScattered clouds.5 mph47%29.86 "HgN/A
11:50 AM72 °FPartly sunny.5 mph50%29.86 "HgN/A
11:20 AM73 °FScattered clouds.No wind47%29.86 "HgN/A
10:50 AM73 °FScattered clouds.No wind47%29.86 "HgN/A
10:20 AM72 °FScattered clouds.No wind53%29.86 "HgN/A
9:50 AM70 °FPassing clouds.No wind57%29.86 "HgN/A
9:20 AM68 °FPassing clouds.No wind64%29.86 "HgN/A
8:50 AM64 °FPassing clouds.No wind68%29.86 "HgN/A
8:20 AM63 °FScattered clouds.No wind73%29.86 "HgN/A
7:50 AM59 °FPassing clouds.No wind88%29.86 "HgN/A
7:20 AM57 °FScattered clouds.No wind88%29.83 "HgN/A
6:50 AM54 °FPassing clouds.No wind94%29.83 "HgN/A
6:20 AM55 °FPassing clouds.No wind88%29.83 "HgN/A
5:50 AM55 °FPassing clouds.No wind88%29.83 "HgN/A
4:50 AM55 °FPassing clouds.No wind88%29.83 "HgN/A
3:50 AM57 °FPassing clouds.No wind82%29.83 "HgN/A
2:50 AM55 °FPassing clouds.No wind82%29.86 "HgN/A
1:50 AM57 °FPassing clouds.No wind82%29.86 "HgN/A
12:50 AM61 °FPassing clouds.No wind72%29.86 "HgN/A
11:50 PM
Thu, May 28
61 °FPassing clouds.No wind72%29.86 "HgN/A
10:50 PM63 °FPassing clouds.No wind73%29.86 "HgN/A
10:20 PM64 °FPassing clouds.No wind68%29.86 "HgN/A
9:50 PM63 °FPassing clouds.No wind77%29.86 "HgN/A
9:20 PM63 °FScattered clouds.5 mph77%29.83 "HgN/A
8:50 PM66 °FLight rain. Scattered clouds.6 mph68%29.83 "HgN/A
8:20 PM70 °FScattered clouds.6 mph46%29.83 "HgN/A
Weather by CustomWeather, © 2015

See weather overviewHow to use our weather pages